This is the latest recevied weather packets stored in our database for station/object WA2TQI. If no packets are shown the sender has not sent any weather packets the latest 10 day(s).
| Time | Temp. | Humidity | Pressure | Rain* | Wind** | Luminosity | Snow |
|---|---|---|---|---|---|---|---|
| 1778195304 | 17.78° C | 44% | 1008.8 hPa | 0 mm | - | - | - |
| 1778195001 | 17.78° C | 44% | 1008.8 hPa | 0 mm | - | - | - |
| 1778194701 | 17.22° C | 47% | 1008.9 hPa | 0 mm | - | - | - |
| 1778194398 | 17.22° C | 45% | 1008.9 hPa | 0 mm | - | - | - |
| 1778194094 | 17.22° C | 48% | 1009 hPa | 0 mm | - | - | - |
| 1778193790 | 17.78° C | 45% | 1008.8 hPa | 0 mm | - | - | - |
| 1778193487 | 17.78° C | 46% | 1008.7 hPa | 0 mm | - | - | - |
| 1778193183 | 17.78° C | 44% | 1008.8 hPa | 0 mm | - | - | - |
| 1778192880 | 17.78° C | 44% | 1008.9 hPa | 0 mm | - | - | - |
| 1778192576 | 17.78° C | 44% | 1008.9 hPa | 0 mm | - | - | - |
| 1778192274 | 17.78° C | 46% | 1009 hPa | 0 mm | - | - | - |
| 1778191970 | 17.78° C | 44% | 1009.1 hPa | 0 mm | - | - | - |
| 1778191666 | 18.33° C | 44% | 1009 hPa | 0 mm | - | - | - |
| 1778191365 | 18.33° C | 44% | 1008.9 hPa | 0 mm | - | - | - |
| 1778191060 | 18.33° C | 44% | 1008.9 hPa | 0 mm | - | - | - |
| 1778190758 | 18.33° C | 45% | 1009.1 hPa | 0 mm | - | - | - |
| 1778190455 | 18.33° C | 45% | 1009.1 hPa | 0 mm | - | - | - |
| 1778190152 | 18.33° C | 45% | 1009.1 hPa | 0 mm | - | - | - |
| 1778189847 | 18.33° C | 43% | 1009.1 hPa | 0 mm | - | - | - |
| 1778189545 | 18.33° C | 44% | 1009 hPa | 0 mm | - | - | - |
| 1778189241 | 18.33° C | 45% | 1009.1 hPa | 0 mm | - | - | - |
| 1778188938 | 18.33° C | 43% | 1008.9 hPa | 0 mm | - | - | - |
| 1778188634 | 18.33° C | 43% | 1009.1 hPa | 0 mm | - | - | - |
| 1778188330 | 18.33° C | 43% | 1009 hPa | 0 mm | - | - | - |
| 1778188028 | 18.33° C | 44% | 1008.7 hPa | 0 mm | - | - | - |
* Rain latest hour (hover to see other rain measurements)
** Current wind speed in m/s (hover to see current wind gust speed)